Location: Caltech
(34.1382°N, 118.1253°W)
Time: 04:33:42
(UTC-08:00)

Iridium 94 - Visible Passes

Search period start: 05 December 2016 00:00
Search period end: 15 December 2016 00:00
Orbit: 776 x 779 km, 86.4° (Epoch: 04 December)

Date Brightness Start Highest point End Pass type
(mag) Time Alt. Az. Time Alt. Az. Time Alt. Az.
05 Dec 5.5 05:05:01 10° N 05:10:15 90° ESE 05:15:28 10° S visible
05 Dec 7.0 17:58:09 10° SSW 18:02:57 38° W 18:07:48 10° NNW visible
06 Dec 6.5 04:31:41 10° NNE 04:36:41 46° E 04:41:40 10° SSE visible
06 Dec 7.0 06:13:48 10° NW 06:16:56 16° W 06:20:03 10° WSW visible
06 Dec 5.8 17:24:10 10° S 17:29:22 75° W 17:34:35 10° N visible
07 Dec 7.6 03:58:50 10° NNE 04:03:01 24° E 04:07:10 10° SE visible
07 Dec 6.2 05:39:08 10° NNW 05:43:41 31° W 05:48:12 10° SW visible
07 Dec 8.4 18:34:28 10° WSW 18:36:56 13° WNW 18:39:25 10° NW visible
08 Dec 8.4 03:27:08 10° NE 03:29:12 12° ENE 03:31:17 10° E visible
08 Dec 5.5 05:05:14 10° N 05:10:19 61° W 05:15:26 10° SSW visible
08 Dec 7.7 17:58:51 10° SW 18:03:09 26° W 18:07:28 10° NNW visible
09 Dec 5.7 04:33:23 22° N 04:36:49 69° E 04:42:00 10° S visible
09 Dec 7.3 06:15:56 10° WNW 06:16:49 10° WNW 06:17:41 10° W visible
09 Dec 6.6 17:24:27 10° SSW 17:29:29 50° W 17:34:33 10° N visible
10 Dec 6.9 04:01:25 27° NE 04:03:14 35° E 04:07:58 10° SSE visible
10 Dec 6.7 05:41:59 18° WNW 05:43:38 21° W 05:47:27 10° SW visible
11 Dec 7.9 03:29:21 19° ENE 03:29:29 19° E 03:33:05 10° ESE visible
11 Dec 5.9 05:09:54 39° WNW 05:10:20 40° W 05:15:10 10° SSW visible
11 Dec 8.3 18:00:00 10° WSW 18:03:24 17° WNW 18:06:49 10° NW visible
12 Dec 5.6 04:37:44 63° SSW 04:37:44 63° SSW 04:42:07 10° S visible
12 Dec 7.4 17:25:00 10° SSW 17:29:39 33° W 17:34:21 10° NNW visible
13 Dec 6.9 04:05:29 32° SE 04:05:29 32° SE 04:08:27 10° SSE visible
13 Dec 7.5 05:46:02 10° WSW 05:46:02 10° WSW 05:46:10 10° WSW visible
14 Dec 8.1 03:33:10 14° SE 03:33:10 14° SE 03:34:08 10° SE visible
14 Dec 7.4 05:13:42 14° SW 05:13:42 14° SW 05:14:38 10° SW visible
14 Dec 8.5 18:02:02 10° W 18:03:41 11° WNW 18:05:21 10° WNW visible
